Location: ?????????
(41.2286°N, 23.0068°E)
Time: 08:31:54
(UTC+00:00)

BlueWalker 3 - Pass Details

Date: 08 November 2025
Orbit: 455 x 462 km, 53.2° (Epoch: 04 December)

Event Time Altitude Azimuth Distance (km) Brightness Sun altitude
Exits shadow 03:50:20 25° 309° (NW) 959 2.9 -14.8°
Maximum altitude 03:52:18 89° 32° (NNE) 466 1.7 -14.5°
Drops below altitude 10° 03:55:55 10° 129° (SE) 1,599 5.5 -13.8°
Sets 03:58:02 0° 130° (SE) 2,468 6.6 -13.4°
